Weather History for Winder, GA

Change the Weather History Date:

Monday, January 27, 2014

  Actual Average Record
Temperature  
Mean Temperature 48 °F -  
Max Temperature 60 °F 53 °F 72 °F (1965)
Min Temperature 35 °F 30 °F 9 °F (1986)
Degree Days  
Heating Degree Days 18    
Moisture  
Dew Point 18 °F    
Average Humidity 32    
Maximum Humidity 65    
Minimum Humidity 15    
Precipitation  
Precipitation 0.00 in - - ()
Sea Level Pressure  
Sea Level Pressure 29.97 in    
Wind  
Wind Speed 7 mph (West)    
Max Wind Speed 15 mph    
Max Gust Speed 22 mph    
Visibility 10 miles    
Events      
Averages and records for this station are not official NWS values.
T = Trace of Precipitation, MM = Missing Value Source: NWS Daily Summary

Daily Weather History Graph

Daily Weather History Graph

Search for Another Location

Airport:

Trip Planner

Search our weather history database for the weather conditions in past years. The results will help you decide how hot, cold, wet, or windy it might be!

Date:

Astronomy

Jan. 27, 2014 Rise Set
Actual Time 7:34 AM EST 6:00 PM EST
Civil Twilight 7:08 AM EST 6:26 PM EST
Nautical Twilight 6:38 AM EST 6:57 PM EST
Astronomical Twilight 6:08 AM EST 7:26 PM EST
Moon 4:13 AM EST (1/27) 2:47 PM EST (1/27)
Length of Visible Light 11h 18m
Length of Day
10h 25m
Waning Crescent, 15% of the Moon is Illuminated
Jan 27
Waning Crescent
Jan 30
New
Feb 6
First Quarter
Feb 14
Full
Feb 22
Last Quarter

Hourly Weather History & Observations

Time (EST) Temp. Windchill Dew Point Humidity Pressure Visibility Wind Dir Wind Speed Gust Speed Precip Events Conditions
12:15 AM 46.4 °F 43.5 °F 19.4 °F 34% 29.95 in 10.0 mi SW 5.8 mph - N/A   Unknown
12:35 AM 46.4 °F 43.5 °F 19.4 °F 34% 29.95 in 10.0 mi SW 5.8 mph - N/A   Unknown
12:55 AM 46.4 °F 43.5 °F 19.4 °F 34% 29.94 in 10.0 mi SW 5.8 mph - N/A   Unknown
1:15 AM 46.4 °F 43.5 °F 19.4 °F 34% 29.95 in 10.0 mi SW 5.8 mph - N/A   Unknown
1:35 AM 46.4 °F 43.5 °F 19.4 °F 34% 29.94 in 10.0 mi SW 5.8 mph - N/A   Unknown
1:55 AM 46.4 °F 42.9 °F 19.4 °F 34% 29.94 in 10.0 mi SW 6.9 mph - N/A   Unknown
2:15 AM 46.4 °F 44.3 °F 19.4 °F 34% 29.93 in 10.0 mi SSW 4.6 mph - N/A   Unknown
2:35 AM 46.4 °F 44.3 °F 19.4 °F 34% 29.92 in 10.0 mi SSW 4.6 mph - N/A   Unknown
2:55 AM 46.4 °F 44.3 °F 19.4 °F 34% 29.91 in 10.0 mi South 4.6 mph - N/A   Unknown
3:15 AM 46.4 °F 42.9 °F 19.4 °F 34% 29.92 in 10.0 mi SW 6.9 mph - N/A   Unknown
3:35 AM 46.4 °F 42.9 °F 21.2 °F 37% 29.91 in 10.0 mi SSW 6.9 mph - N/A   Unknown
3:55 AM 46.4 °F 41.9 °F 23.0 °F 40% 29.92 in 10.0 mi SW 9.2 mph - N/A   Unknown
4:15 AM 46.4 °F 42.4 °F 21.2 °F 37% 29.91 in 10.0 mi SSW 8.1 mph - N/A   Unknown
4:35 AM 46.4 °F 41.5 °F 21.2 °F 37% 29.91 in 10.0 mi SW 10.4 mph 16.1 mph N/A   Unknown
4:55 AM 46.4 °F 44.3 °F 21.2 °F 37% 29.92 in 10.0 mi West 4.6 mph - N/A   Unknown
5:15 AM 46.4 °F - 21.2 °F 37% 29.92 in 10.0 mi Calm Calm - N/A   Unknown
5:35 AM 44.6 °F - 23.0 °F 43% 29.91 in 10.0 mi Calm Calm - N/A   Unknown
5:55 AM 44.6 °F 41.4 °F 23.0 °F 43% 29.95 in 10.0 mi NW 5.8 mph - N/A   Unknown
6:15 AM 42.8 °F - 23.0 °F 46% 29.95 in 10.0 mi Calm Calm - N/A   Unknown
6:35 AM 41.0 °F 39.0 °F 24.8 °F 53% 29.95 in 10.0 mi SW 3.5 mph - N/A   Unknown
6:55 AM 41.0 °F - 24.8 °F 53% 29.95 in 10.0 mi Calm Calm - N/A   Unknown
7:15 AM 41.0 °F - 24.8 °F 53% 29.95 in 10.0 mi Calm Calm - N/A   Unknown
7:35 AM 39.2 °F - 26.6 °F 61% 29.95 in 10.0 mi Calm Calm - N/A   Unknown
7:55 AM 39.2 °F - 26.6 °F 61% 29.95 in 10.0 mi Calm Calm - N/A   Unknown
8:15 AM 37.4 °F - 26.6 °F 65% 29.95 in 10.0 mi Calm Calm - N/A   Unknown
8:35 AM 39.2 °F 37.0 °F 26.6 °F 61% 29.94 in 10.0 mi South 3.5 mph - N/A   Unknown
8:55 AM 44.6 °F 43.1 °F 24.8 °F 46% 29.95 in 10.0 mi SW 3.5 mph - N/A   Unknown
9:15 AM 46.4 °F 44.3 °F 23.0 °F 40% 29.95 in 10.0 mi WSW 4.6 mph - N/A   Unknown
9:35 AM 48.2 °F - 26.6 °F 43% 29.95 in 10.0 mi SW 8.1 mph - N/A   Unknown
9:55 AM 50.0 °F - 26.6 °F 40% 29.96 in 10.0 mi WSW 4.6 mph - N/A   Unknown
10:15 AM 51.8 °F - 28.4 °F 41% 29.96 in 10.0 mi WSW 6.9 mph - N/A   Unknown
10:35 AM 53.6 °F - 28.4 °F 38% 29.96 in 10.0 mi West 5.8 mph - N/A   Unknown
10:55 AM 55.4 °F - 26.6 °F 33% 29.96 in 10.0 mi West 9.2 mph - N/A   Unknown
11:15 AM 55.4 °F - 24.8 °F 31% 29.95 in 10.0 mi WNW 13.8 mph 20.7 mph N/A   Unknown
11:35 AM 57.2 °F - 23.0 °F 27% 29.95 in 10.0 mi WNW 12.7 mph 18.4 mph N/A   Unknown
11:55 AM 59.0 °F - 23.0 °F 25% 29.95 in 10.0 mi NNW 12.7 mph 16.1 mph N/A   Unknown
12:15 PM 59.0 °F - 21.2 °F 23% 29.94 in 10.0 mi West 11.5 mph - N/A   Unknown
12:35 PM 59.0 °F - 21.2 °F 23% 29.95 in 10.0 mi West 10.4 mph 17.3 mph N/A   Unknown
12:55 PM 59.0 °F - 21.2 °F 23% 29.93 in 10.0 mi NW 10.4 mph - N/A   Unknown
1:15 PM 60.8 °F - 21.2 °F 22% 29.93 in 10.0 mi West 9.2 mph 16.1 mph N/A   Unknown
1:35 PM 60.8 °F - 21.2 °F 22% 29.92 in 10.0 mi WNW 12.7 mph 20.7 mph N/A   Unknown
1:55 PM 60.8 °F - 19.4 °F 20% 29.92 in 10.0 mi NW 15.0 mph 21.9 mph N/A   Unknown
2:15 PM 59.0 °F - 21.2 °F 23% 29.92 in 10.0 mi NW 10.4 mph - N/A   Unknown
2:35 PM 60.8 °F - 19.4 °F 20% 29.92 in 10.0 mi West 10.4 mph 17.3 mph N/A   Unknown
2:55 PM 60.8 °F - 19.4 °F 20% 29.92 in 10.0 mi NW 12.7 mph - N/A   Unknown
3:15 PM 59.0 °F - 21.2 °F 23% 29.93 in 10.0 mi West 10.4 mph 16.1 mph N/A   Unknown
3:35 PM 60.8 °F - 19.4 °F 20% 29.93 in 10.0 mi WNW 6.9 mph 16.1 mph N/A   Unknown
3:55 PM 59.0 °F - 19.4 °F 22% 29.93 in 10.0 mi WNW 15.0 mph 19.6 mph N/A   Unknown
4:15 PM 59.0 °F - 19.4 °F 22% 29.94 in 10.0 mi WNW 6.9 mph - N/A   Unknown
4:35 PM 59.0 °F - 19.4 °F 22% 29.94 in 10.0 mi West 11.5 mph 17.3 mph N/A   Unknown
4:55 PM 57.2 °F - 19.4 °F 23% 29.95 in 10.0 mi West 8.1 mph - N/A   Unknown
5:15 PM 55.4 °F - 19.4 °F 25% 29.95 in 10.0 mi West 8.1 mph - N/A   Unknown
5:35 PM 55.4 °F - 19.4 °F 25% 29.97 in 10.0 mi West 9.2 mph - N/A   Unknown
5:55 PM 53.6 °F - 19.4 °F 26% 29.98 in 10.0 mi West 12.7 mph - N/A   Unknown
6:15 PM 51.8 °F - 19.4 °F 28% 29.99 in 10.0 mi WNW 11.5 mph 17.3 mph N/A   Unknown
6:35 PM 50.0 °F - 17.6 °F 28% 30.00 in 10.0 mi WNW 11.5 mph - N/A   Unknown
6:55 PM 46.4 °F 40.7 °F 17.6 °F 32% 30.00 in 10.0 mi WNW 12.7 mph 18.4 mph N/A   Unknown
7:15 PM 46.4 °F 42.9 °F 14.0 °F 27% 30.01 in 10.0 mi WNW 6.9 mph - N/A   Unknown
7:35 PM 44.6 °F 40.2 °F 14.0 °F 29% 30.03 in 10.0 mi WNW 8.1 mph - N/A   Unknown
7:55 PM 44.6 °F 41.4 °F 14.0 °F 29% 30.03 in 10.0 mi NW 5.8 mph - N/A   Unknown
8:15 PM 42.8 °F 39.3 °F 12.2 °F 29% 30.04 in 10.0 mi WNW 5.8 mph - N/A   Unknown
8:35 PM 42.8 °F 37.5 °F 10.4 °F 27% 30.05 in 10.0 mi WNW 9.2 mph - N/A   Unknown
8:55 PM 41.0 °F 34.7 °F 5.0 °F 23% 30.05 in 10.0 mi WNW 10.4 mph - N/A   Unknown
9:15 PM 41.0 °F 34.7 °F 3.2 °F 21% 30.05 in 10.0 mi WNW 10.4 mph - N/A   Unknown
9:35 PM 39.2 °F 32.0 °F -2.2 °F 17% 30.06 in 10.0 mi WNW 11.5 mph - N/A   Unknown
9:55 PM 39.2 °F 32.5 °F -5.8 °F 15% 30.07 in 10.0 mi WNW 10.4 mph - N/A   Unknown
10:15 PM 37.4 °F 29.8 °F -5.8 °F 16% 30.07 in 10.0 mi NW 11.5 mph - N/A   Unknown
10:35 PM 37.4 °F 30.3 °F -7.6 °F 15% 30.07 in 10.0 mi NW 10.4 mph - N/A   Unknown
10:55 PM 37.4 °F 29.8 °F -7.6 °F 15% 30.08 in 10.0 mi NW 11.5 mph - N/A   Unknown
11:15 PM 37.4 °F 30.3 °F -7.6 °F 15% 30.08 in 10.0 mi NW 10.4 mph 16.1 mph N/A   Unknown
11:35 PM 35.6 °F 28.6 °F -5.8 °F 17% 30.08 in 10.0 mi NW 9.2 mph - N/A   Unknown
11:55 PM 35.6 °F 29.2 °F -5.8 °F 17% 30.08 in 10.0 mi NW 8.1 mph - N/A   Unknown